TimeHST,TemperatureF,Dew PointF,Humidity,Sea Level PressureIn,VisibilityMPH,Wind Direction,Wind SpeedMPH,Gust SpeedMPH,PrecipitationIn,Events,Conditions,WindDirDegrees,DateUTC
12:56 AM,63.9,61.9,93,30.03,10.0,East,6.9,-,N/A,,Clear,80,2013-03-12 10:56:00
1:56 AM,63.9,61.0,90,30.01,10.0,NE,4.6,-,N/A,,Clear,50,2013-03-12 11:56:00
2:56 AM,63.9,61.9,93,29.99,10.0,East,4.6,-,N/A,,Clear,90,2013-03-12 12:56:00
3:56 AM,63.9,61.9,93,29.97,10.0,NE,3.5,-,N/A,,Clear,40,2013-03-12 13:56:00
4:56 AM,64.9,61.0,87,29.99,10.0,NNW,4.6,-,N/A,,Clear,340,2013-03-12 14:56:00
5:56 AM,64.9,61.9,90,30.01,10.0,NNE,8.1,-,N/A,,Clear,30,2013-03-12 15:56:00
6:56 AM,64.9,61.9,90,30.02,10.0,NNE,6.9,-,N/A,,Clear,30,2013-03-12 16:56:00
7:56 AM,66.9,63.0,87,30.04,10.0,NNE,3.5,-,N/A,,Scattered Clouds,20,2013-03-12 17:56:00
8:56 AM,70.9,61.0,71,30.06,10.0,NW,3.5,-,N/A,,Partly Cloudy,320,2013-03-12 18:56:00
9:56 AM,72.9,61.9,68,30.06,10.0,Calm,Calm,-,N/A,,Clear,0,2013-03-12 19:56:00
10:56 AM,74.8,63.0,66,30.06,10.0,West,6.9,-,N/A,,Partly Cloudy,280,2013-03-12 20:56:00
11:56 AM,77.0,63.9,64,30.05,10.0,WNW,5.8,-,N/A,,Partly Cloudy,300,2013-03-12 21:56:00
12:56 PM,79.9,63.0,56,30.02,10.0,West,9.2,-,N/A,,Clear,260,2013-03-12 22:56:00
1:56 PM,77.0,61.9,59,30.01,10.0,NW,10.4,-,N/A,,Partly Cloudy,320,2013-03-12 23:56:00
2:10 PM,77.0,62.6,61,30.06,10.0,NW,11.5,-,N/A,,Mostly Cloudy,310,2013-03-13 00:10:00
2:56 PM,77.9,61.0,56,30.00,10.0,WNW,11.5,-,N/A,,Scattered Clouds,290,2013-03-13 00:56:00
3:56 PM,77.9,59.9,54,29.99,10.0,West,10.4,-,N/A,,Clear,280,2013-03-13 01:56:00
4:56 PM,75.9,61.0,60,29.99,10.0,NNE,9.2,-,N/A,,Partly Cloudy,20,2013-03-13 02:56:00
5:56 PM,72.9,59.9,64,30.01,10.0,NNE,5.8,-,N/A,,Clear,20,2013-03-13 03:56:00
6:56 PM,68.0,59.9,75,30.04,10.0,ENE,4.6,-,N/A,,Clear,70,2013-03-13 04:56:00
7:56 PM,64.9,59.0,81,30.05,10.0,NE,4.6,-,N/A,,Clear,50,2013-03-13 05:56:00
8:56 PM,64.9,61.0,87,30.08,10.0,NE,10.4,-,N/A,,Clear,40,2013-03-13 06:56:00
9:56 PM,64.9,59.9,84,30.09,10.0,NE,6.9,-,N/A,,Clear,40,2013-03-13 07:56:00
10:56 PM,63.9,59.9,87,30.08,10.0,East,8.1,-,N/A,,Clear,80,2013-03-13 08:56:00
11:56 PM,63.0,57.9,84,30.07,10.0,ENE,8.1,-,N/A,,Clear,60,2013-03-13 09:56:00